Palmdale, CA

1:30 PM PDT on May 24, 2018 (GMT -0700)
Palmdale Af Plant 42

Weather History for KPMD - April, 2010

Change the Weather History Date:

Monday, April 19, 2010

  Actual Average Record
Temperature  
Mean Temperature 63 °F 59 °F  
Max Temperature 76 °F 73 °F 92 °F (1954)
Min Temperature 50 °F 44 °F 27 °F (1955)
Degree Days  
Heating Degree Days 2 7  
Month to date heating degree days 206 169  
Since 1 July heating degree days 2773 2790  
Cooling Degree Days 0 1  
Month to date cooling degree days 0 4  
Year to date cooling degree days 0 6  
Growing Degree Days 14 (Base 50)    
Moisture  
Dew Point 32 °F    
Average Humidity 32    
Maximum Humidity 48    
Minimum Humidity 15    
Precipitation  
Precipitation 0.00 in 0.02 in 0.15 in (1967)
Month to date precipitation 0.38 0.32  
Year to date precipitation 5.44 4.83  
Since 1 July precipitation 6.31  
Snow  
Snow 0.00 in - 0.00 in (1973)
Month to date snowfall 0.0  
Since 1 July snowfall 0.0  
Snow Depth 0.00 in    
Sea Level Pressure  
Sea Level Pressure 29.86 in    
Wind  
Wind Speed 15 mph (SW)    
Max Wind Speed 26 mph    
Max Gust Speed 33 mph    
Visibility 10 miles    
Events      
T = Trace of Precipitation, MM = Missing Value Source: NWS Daily Summary

Daily Weather History Graph

Daily Weather History Graph

Search for Another Location

Airport or City:

Astronomy

Apr. 19, 2010 Rise Set
Actual Time 6:15 AM PDT 7:27 PM PDT
Civil Twilight 5:49 AM PDT 7:53 PM PDT
Nautical Twilight 5:18 AM PDT 8:25 PM PDT
Astronomical Twilight 4:46 AM PDT 8:57 PM PDT
Moon 10:02 AM PDT (4/19) 12:06 AM PDT (4/19)
Length of Visible Light 14h 04m
Length of Day
13h 11m
Waxing Crescent, 29% of the Moon is Illuminated
Apr 19
Waxing Crescent
Apr 21
First Quarter
Apr 28
Full
May 5
Last Quarter
May 13
New

Hourly Weather History & Observations

Time (PDT) Temp. Dew Point Humidity Pressure Visibility Wind Dir Wind Speed Gust Speed Precip Events Conditions
12:53 AM 55.9 °F 19.9 °F 25% 29.87 in 10.0 mi SW 6.9 mph - N/A   Clear
1:53 AM 55.9 °F 28.0 °F 34% 29.85 in 10.0 mi South 9.2 mph - N/A   Clear
2:53 AM 57.9 °F 10.0 °F 15% 29.84 in 10.0 mi WSW 6.9 mph - N/A   Clear
3:53 AM 55.0 °F 17.1 °F 23% 29.84 in 10.0 mi South 9.2 mph - N/A   Clear
4:53 AM 52.0 °F 21.9 °F 31% 29.83 in 10.0 mi SSW 4.6 mph - N/A   Clear
5:53 AM 54.0 °F 21.0 °F 28% 29.83 in 10.0 mi SW 6.9 mph - N/A   Clear
6:53 AM 57.9 °F 23.0 °F 26% 29.85 in 10.0 mi WSW 8.1 mph - N/A   Clear
7:53 AM 63.0 °F 26.1 °F 25% 29.86 in 10.0 mi SW 9.2 mph - N/A   Clear
8:53 AM 66.9 °F 26.1 °F 21% 29.86 in 10.0 mi SW 10.4 mph - N/A   Clear
9:53 AM 70.0 °F 27.0 °F 20% 29.86 in 10.0 mi WSW 13.8 mph - N/A   Clear
10:53 AM 71.1 °F 30.9 °F 23% 29.88 in 10.0 mi SW 18.4 mph - N/A   Clear
11:53 AM 73.0 °F 28.9 °F 20% 29.88 in 10.0 mi SW 21.9 mph 27.6 mph N/A   Clear
12:53 PM 73.9 °F 34.0 °F 23% 29.87 in 10.0 mi SW 20.7 mph 26.5 mph N/A   Clear
1:53 PM 75.0 °F 37.0 °F 25% 29.86 in 10.0 mi SW 23.0 mph 27.6 mph N/A   Clear
2:53 PM 73.9 °F 39.9 °F 29% 29.86 in 10.0 mi SW 21.9 mph - N/A   Clear
3:53 PM 73.9 °F 42.1 °F 32% 29.85 in 10.0 mi WSW 19.6 mph 26.5 mph N/A   Clear
4:53 PM 72.0 °F 44.1 °F 37% 29.87 in 10.0 mi SW 21.9 mph 28.8 mph N/A   Clear
5:53 PM 69.1 °F 45.0 °F 42% 29.87 in 10.0 mi SW 21.9 mph 29.9 mph N/A   Clear
6:53 PM 66.0 °F 44.1 °F 45% 29.87 in 10.0 mi SW 17.3 mph - N/A   Clear
7:53 PM 63.0 °F 42.1 °F 46% 29.87 in 10.0 mi SW 20.7 mph 27.6 mph N/A   Clear
8:53 PM 61.0 °F 39.0 °F 44% 29.88 in 10.0 mi SW 20.7 mph 26.5 mph N/A   Clear
9:53 PM 59.0 °F 37.0 °F 44% 29.91 in 10.0 mi WSW 11.5 mph - N/A   Clear
10:53 PM 60.1 °F 36.0 °F 41% 29.90 in 10.0 mi SW 10.4 mph - N/A   Clear
11:53 PM 59.0 °F 36.0 °F 42% 29.90 in 10.0 mi SSW 10.4 mph - N/A   Clear